Location: Muggenbach
(50.2129°N, 10.7828°E)
Time: 14:22:47
(UTC+00:00)

Daily predictions for brighter satellites

Satellite Brightness Start Highest point End
(mag) Time Altitude Azimuth Time Altitude Azimuth Time Altitude Azimuth
Cosmos 1455 2.4 20:07:32 10° NNW 20:11:23 78° W 20:15:14 10° S
Cosmos 1825 Rocket 3.8 20:12:34 10° S 20:16:55 56° E 20:21:18 10° NNE
ATLAS CENTAUR R/B 1.9 20:14:44 10° NNW 20:18:20 43° NE 20:21:49 10° ESE
Cosmos 1703 3.2 20:17:38 10° S 20:21:29 67° E 20:25:21 10° NNE
Cosmos 1812 Rocket 4.5 20:17:23 10° NNW 20:21:34 47° W 20:25:43 10° SSW
COSMOS 2428 3.6 20:17:47 10° SSE 20:22:33 29° ESE 20:27:22 10° NE
Cosmos 1844 3.8 20:17:39 10° NNW 20:23:28 85° WSW 20:29:12 10° SSE
Cosmos 2322 4.0 20:20:50 10° S 20:26:18 49° ESE 20:31:48 10° NE
CZ-4B DEB 4.4 20:28:25 10° SSE 20:31:46 74° ENE 20:35:08 10° N
Cosmos 783 Rocket 4.5 20:27:13 10° SSW 20:32:27 74° ESE 20:37:40 10° NNE
Cosmos 1709 Rocket 4.1 20:26:51 10° S 20:33:05 70° E 20:39:27 10° NNE
NOSS 3-3 (A) 4.5 20:29:31 10° S 20:34:48 36° ESE 20:40:40 10° NE
Atlas Centaur 2 4.2 20:33:21 10° SSW 20:35:56 13° S 20:38:43 10° SSE
Terra 2.3 20:31:41 10° SE 20:36:14 49° ENE 20:40:51 10° N
Cosmos 2237 Rocket 3.9 20:33:18 10° SE 20:36:32 16° E 20:39:48 10° ENE
CARTOSAT-1 3.6 20:33:04 10° SSE 20:37:21 73° ENE 20:41:41 10° N
Cosmos 2333 4.3 20:32:34 10° S 20:38:04 57° ESE 20:43:40 10° NE
Cosmos 2219 Rocket 2.6 20:33:19 10° S 20:38:30 41° ESE 20:43:44 10° NE
Cosmos 2360 Rocket 2.4 20:34:42 10° SSW 20:40:21 81° WNW 20:46:05 10° NNE
IGS 5A 4.0 20:36:31 10° S 20:40:36 56° W 20:44:43 10° NNW
Cosmos 2333 Rocket 2.4 20:42:46 10° S 20:48:15 52° ESE 20:53:48 10° NE
Cosmos 1315 Rocket 3.0 20:46:37 10° N 20:50:42 65° ENE 20:54:13 14° SSE
ATLAS 2AS CENTAUR R/B 3.6 20:43:31 10° NW 20:51:05 51° NNE 20:58:02 10° ESE
Resurs 01 Rocket 3.8 20:49:20 10° SW 20:52:42 21° W 20:56:05 10° NW
Cosmos-2242 3.9 20:49:56 10° NNW 20:54:07 48° W 20:58:18 10° SSW
Cosmos 1818 3.8 20:50:16 10° SW 20:55:42 76° NW 21:01:12 10° NE
Cosmos 773 Rocket 4.0 20:52:59 10° SSW 20:58:17 81° ESE 21:03:37 10° NNE
Cosmos 2221 3.0 20:54:54 10° N 20:59:09 47° ENE 21:02:29 15° SE
SL-16 R/B 4.1 20:54:32 10° WSW 20:59:39 34° NW 21:04:48 10° NNE
ERS-1 Rocket 3.2 20:56:51 10° S 21:01:50 68° WSW 21:06:54 10° NNW
GEOS 3 Rocket 3.7 20:57:12 10° NE 21:02:39 89° SE 21:08:03 10° SW
USA 215 3.3 20:59:32 10° ENE 21:06:00 57° SE 21:12:24 10° SW
Cosmos 2278 Rocket 2.4 21:02:47 10° NNW 21:08:28 64° ENE 21:13:09 15° SE
Cosmos 1892 3.9 21:07:01 17° SE 21:09:05 26° E 21:12:19 10° NNE
ATLAS 5 CENTAUR R/B 2.1 21:08:10 10° SW 21:12:22 64° NW 21:17:11 10° NE
Meteor 1-11 4.4 21:07:13 10° SSW 21:12:50 79° WNW 21:18:34 10° N
Cosmos 1844 Rocket 4.0 21:08:05 10° NW 21:12:57 31° WSW 21:17:47 10° SSW
Gblst 52 Del rocket 4.4 21:09:14 10° WNW 21:14:52 67° SSW 21:20:33 13° SE
Cosmos 1943 Rocket 4.4 21:11:53 10° N 21:15:53 19° NE 21:19:51 10° E
SPOT 5 3.4 21:13:56 11° S 21:18:37 55° W 21:23:20 10° NNW
SL-16 R/B 4.1 21:18:56 11° ESE 21:20:58 13° E 21:23:25 10° ENE
Lacrosse 5 rocket 3.3 21:17:13 10° WNW 21:20:59 31° N 21:24:33 10° ENE
Nadezhda 3 Rocket 4.4 21:18:07 10° N 21:24:24 55° ENE 21:29:11 17° SSE
USA 81 4.4 21:20:27 10° SSW 21:25:42 67° W 21:30:59 10° N
Cosmos 2058 3.4 21:25:00 20° SSE 21:27:31 43° E 21:31:27 10° NNE
Cosmos 2154 Rocket 4.4 21:23:04 17° SSE 21:27:38 47° E 21:33:33 10° NNE
BREEZE M DEB (TANK) 3.8 21:26:29 10° WSW 21:27:39 13° SW 21:27:39 13° SW
Cosmos 1408 3.8 21:29:05 20° SE 21:30:33 27° E 21:33:38 10° NNE
In-Cosmos 22 Rocket 4.2 21:29:55 17° S 21:33:54 59° E 21:39:08 10° NNE
Cosmos 2074 Rocket 4.0 21:29:15 13° S 21:34:53 81° E 21:41:08 10° NNE
TSX-5 3.6 21:31:44 10° NNW 21:35:11 86° WSW 21:37:36 23° SSE
Cosmos 1076 Rocket 3.8 21:36:09 22° SSE 21:38:42 51° E 21:42:52 10° NNE
Cosmos 1680 Rocket 4.0 21:35:41 19° SSE 21:39:09 44° ESE 21:44:12 10° NE
USA 267 3.3 21:34:04 14° SE 21:39:47 75° SW 21:46:23 10° WNW
CZ-4C R/B 4.3 21:38:26 10° NW 21:44:18 33° NNE 21:51:06 10° E
Cosmos 2084 4.4 21:41:35 10° WNW 21:45:43 37° SW 21:48:05 21° S
Cosmos 1842 Rocket 4.1 21:41:42 10° NNW 21:45:56 51° W 21:49:02 17° SSW
JB-3 4.2 21:43:22 10° NNE 21:47:15 84° WNW 21:49:57 19° SSW
COSMOS 2455 4.3 21:42:50 10° NNW 21:48:18 34° NE 21:53:44 10° E
Cosmos 2151 4.1 21:47:18 21° SE 21:49:14 30° E 21:53:00 10° NNE
MTI 4.0 21:48:09 10° N 21:51:13 62° WNW 21:53:10 20° SSW
Cosmos 923 Rocket 4.0 21:52:20 16° SSW 21:56:36 76° ESE 22:01:55 10° NNE
ATLAS CENTAUR R/B 2.7 21:54:02 10° WNW 21:56:59 23° WSW 21:58:26 18° SSW
Cosmos 2327 Rocket 4.4 21:52:14 18° S 21:57:04 82° E 22:03:14 10° N
Cosmos 1825 2.8 21:58:09 27° SE 21:59:37 40° E 22:03:12 10° NNE
Cosmos 2369 Rocket 4.1 21:56:01 10° NNW 22:00:33 24° NE 22:05:03 10° E
ALOS 2 3.5 21:58:03 20° SE 22:00:40 40° ENE 22:04:48 10° N
Cosmos 1151 Rocket 4.3 21:56:57 10° N 22:00:48 30° ENE 22:03:13 18° ESE
Cosmos 1980 3.7 21:56:55 16° SSW 22:01:27 68° ESE 22:07:06 10° NNE
Cosmos 967 Rocket 4.5 21:57:17 10° SSW 22:03:46 81° SE 22:10:16 10° NE
Cosmos 44 4.3 22:05:15 22° SE 22:05:56 23° ESE 22:09:23 10° ENE
COSMOS 2428 3.3 22:00:56 10° SW 22:06:31 57° NW 22:12:08 10° NNE
Cosmos 371 Rocket 4.3 22:03:46 10° NNW 22:08:22 39° ENE 22:11:47 16° ESE
GP-B 4.0 22:05:11 10° NNE 22:09:18 36° E 22:11:23 23° SE
Cosmos 1295 Rocket 4.4 22:06:31 21° S 22:10:47 76° E 22:16:53 10° NNE
Cosmos 1624 Rocket 4.0 22:08:36 10° NNW 22:13:52 87° ENE 22:16:57 25° SSE
NOSS 0 Rocket 3.9 22:07:42 10° SSW 22:13:52 89° WNW 22:20:06 10° NNE
Terra 3.5 22:10:34 11° SW 22:14:15 24° W 22:18:08 10° NW
NOSS 3-4 (A) 3.9 22:07:30 10° NW 22:14:25 73° SW 22:19:46 21° SSE
NOSS 3-4 (C) 3.9 22:07:38 10° NW 22:14:31 74° SW 22:19:55 21° SSE
Cosmos 2237 Rocket 2.2 22:14:58 15° SSW 22:19:44 85° ESE 22:25:29 10° NNE
SL-4 R/B 2.8 22:19:54 16° ENE 22:19:55 16° ENE 22:21:19 10° NNE
Genesis I 3.2 22:18:36 29° SSW 22:20:22 57° SE 22:24:13 10° NE
Cosmos 2344 3.6 22:16:02 14° SSW 22:22:26 59° ESE 22:30:21 10° NE
Cosmos 2219 Rocket 3.4 22:17:12 10° WSW 22:22:28 41° NW 22:27:48 10° NNE
Elektron 1 4.4 22:21:21 19° SW 22:23:43 78° SE 22:29:36 10° NE
Thor Agena Rocket 3.5 22:24:44 10° NNE 22:29:53 81° WNW 22:33:18 21° SSW
DELTA 2 R/B (1) 4.4 22:25:40 10° SW 22:36:22 - ESE 22:30:02 26° S
Cosmos 2333 Rocket 3.8 22:27:34 10° WSW 22:32:45 35° NW 22:38:01 10° NNE
Cosmos 1515 Rocket 4.3 22:36:55 10° N 22:41:05 43° ENE 22:43:15 24° SE
BREEZE-M DEB (TANK) 1.7 22:38:07 10° W 22:41:22 44° SW 22:41:22 44° SW
Cosmos 1371 Rocket 4.4 22:36:26 10° NNW 22:41:33 52° WSW 22:44:15 26° S
ATLAS 2AS CENTAUR R/B 3.0 22:34:53 10° NW 22:42:15 56° WSW 22:46:25 25° S
EO 1 Del DPAF 3.7 22:39:18 10° N 22:43:00 56° WNW 22:45:00 25° SW
Cosmos 1892 4.4 22:41:59 13° SW 22:44:44 27° WNW 22:48:02 10° N
Cosmos 1766 Rocket 3.5 22:44:24 32° S 22:46:22 75° E 22:50:46 10° NNE
Cosmos 1328 Rocket 3.5 22:44:12 10° N 22:48:32 81° E 22:50:25 33° SSE
Gbstr 26 Del rocket 4.2 22:49:28 22° ESE 22:49:28 22° ESE 22:51:55 10° E
Aureole 2 Rocket 2.1 22:45:55 10° NNW 22:48:42 56° WSW 22:48:59 52° SW
USA 215 3.6 22:42:38 10° ENE 22:49:08 68° NNW 22:55:38 10° WSW
Okean 3 Rocket 3.5 22:47:02 31° S 22:49:11 89° W 22:53:39 10° N
Cosmos 1606 2.7 22:47:00 10° NNW 22:50:53 74° W 22:52:19 37° S
Cosmos 2278 Rocket 3.6 22:47:35 10° NW 22:52:05 25° WSW 22:54:59 17° SW
Cosmos 2112 Rocket 4.5 22:48:24 15° SW 22:52:45 61° WNW 22:58:06 10° NNE
Cosmos 2297 3.7 22:48:17 10° NNW 22:54:01 73° WSW 22:57:11 27° SSE
Cosmos 2218 Rocket 4.1 22:50:54 26° S 22:54:41 73° E 23:01:00 10° NNE
Cosmos 304 Rocket 4.5 22:50:10 10° NNW 22:54:53 49° ENE 22:58:04 19° SE
Cosmos 2228 Rocket 4.2 22:52:27 10° N 22:56:43 36° ENE 22:59:19 20° SE
Cosmos 1420 Rocket 4.0 22:52:32 10° NNW 22:57:50 78° WSW 23:00:36 29° SSE
ATLAS 5 CENTAUR R/B 4.4 22:54:21 10° WNW 22:57:58 22° NNW 23:02:01 10° NE
Cosmos 2366 rocket 4.0 22:56:35 26° S 23:00:22 77° E 23:06:45 10° NNE
Cosmos 1943 Rocket 2.4 22:55:01 10° NNW 23:00:44 69° ENE 23:04:40 20° SE
Lacrosse 5 rocket 2.2 22:56:53 10° NW 23:00:48 47° NNE 23:04:30 10° E
Cosmos 1633 3.5 23:01:11 30° SE 23:02:09 36° E 23:05:30 10° NNE
SL-16 R/B 2.2 23:00:47 26° SSW 23:04:03 73° ESE 23:09:46 10° NNE
Cosmos 2056 Rocket 4.3 23:00:23 10° NW 23:05:24 40° WSW 23:07:58 25° SSW
Cosmos 1408 4.4 23:03:24 14° WSW 23:05:34 24° WNW 23:08:32 10° NNW
Cosmos 1959 Rocket 4.4 23:06:20 26° S 23:10:00 89° E 23:16:15 10° N
YAOGAN 11 4.1 23:09:09 31° SSE 23:11:11 78° ENE 23:15:38 10° NNW
Cosmos 1743 Rocket 4.1 23:12:36 30° SSE 23:14:18 46° E 23:18:29 10° NNE
Cosmos 2341 Rocket 4.5 23:11:46 19° SSW 23:16:09 55° WNW 23:22:16 10° N
Cosmos 332 Rocket 3.7 23:14:25 10° NNW 23:19:13 76° WSW 23:21:28 31° SSE
USA 267 4.3 23:21:24 22° SSW 23:23:31 26° SW 23:28:52 10° WNW
Meteor 2-3 Rocket 3.7 23:21:02 28° SSW 23:24:11 89° WNW 23:29:57 10° NNE
Helios 1A 3.1 23:24:53 35° SSW 23:26:27 60° WSW 23:30:36 10° NNW
Cosmos 2151 4.4 23:23:52 17° WSW 23:26:30 30° WNW 23:30:18 10° N
Cosmos 405 2.9 23:24:32 10° NNW 23:28:06 89° E 23:29:08 44° SSE
Cosmos 1452 Rocket 3.7 23:27:24 10° NNW 23:32:36 60° WSW 23:35:06 30° S
CZ-4C R/B 3.1 23:26:57 10° NW 23:33:56 74° NE 23:42:05 10° SE
Meteor 2-6 Rocket 4.3 23:29:04 10° N 23:34:34 67° ENE 23:37:54 24° SSE
COSMOS 2455 2.8 23:28:42 10° NW 23:34:44 70° WSW 23:38:24 24° SSE
PSLV R/B 3.9 23:30:44 10° NNE 23:34:52 53° E 23:36:34 32° SSE
SL-8 Rocket 4.5 23:30:59 20° SW 23:35:07 52° WNW 23:41:09 10° N
Cosmos 1825 4.4 23:32:56 12° WSW 23:35:20 19° WNW 23:38:06 10° NNW
Cosmos 1340 3.2 23:34:23 31° SW 23:35:52 51° WNW 23:39:34 10° N
Cosmos 1110 Rocket 4.2 23:31:18 10° NNW 23:36:35 69° ENE 23:40:16 20° SE
Cosmos 1933 4.5 23:33:14 10° NNW 23:36:49 32° W 23:38:13 25° SW
ALOS 2 4.1 23:35:27 20° SW 23:37:08 25° W 23:40:49 10° NW
Cosmos 1408 Rocket 3.9 23:35:56 28° SW 23:38:00 56° WNW 23:42:22 10° N
Cosmos 1151 Rocket 4.2 23:34:30 10° NNW 23:38:21 31° W 23:40:03 23° SW
SL-16 R/B 4.0 23:33:12 10° ESE 23:38:39 33° ENE 23:44:08 10° N
Cosmos 1603 4.3 23:36:25 26° SSE 23:39:06 42° ESE 23:44:29 10° NE
Cosmos 1727 Rocket 4.2 23:38:21 10° NNW 23:44:28 61° W 23:48:04 26° SSW
APEX 3.8 23:42:24 10° NW 23:44:22 26° W 23:44:22 26° W
Resurs 1-4 Rocket 4.1 23:41:26 10° NE 23:45:06 19° E 23:48:44 10° SE
Cosmos 2369 Rocket 2.1 23:39:37 10° NNW 23:45:15 83° WSW 23:48:49 23° SSE
Cosmos 1500 Rocket 3.5 23:44:49 33° S 23:46:46 88° W 23:51:11 10° N
Cosmos 44 3.5 23:43:37 18° WSW 23:46:46 57° NW 23:51:12 10° NE
SL-4 R/B 3.5 23:48:59 10° WNW 23:48:59 10° WNW 23:49:02 10° WNW
Cosmos 371 Rocket 4.3 23:44:23 10° NW 23:48:41 32° WSW 23:50:25 25° SW
SeaSat 1 4.0 23:45:21 10° NE 23:49:10 22° ESE 23:51:20 17° SE
ISS -1.5 23:51:01 13° ESE 23:51:01 13° ESE 23:51:56 10° E
Helios 1B rocket 2.5 23:49:33 10° NNE 23:53:41 68° ESE 23:55:23 34° S
